Location: Norton
(51.3000°N, 0.8167°E)
Time: 03:06:10
(UTC+00:00)

Meteor 1-20 Rocket - Pass Details

Date: 03 March 2021
Orbit: 820 x 891 km, 81.2° (Epoch: 13 April)

Event Time Altitude Azimuth Distance (km) Brightness Sun altitude
Rises 18:08:18 0° 177° (S) 3,340 7.3 -5.0°
Reaches altitude 10° 18:10:43 10° 174° (S) 2,412 6.6 -5.4°
Maximum altitude 18:16:02 58° 97° (E) 956 4.2 -6.3°
Drops below altitude 10° 18:21:27 10° 19° (NNE) 2,448 6.4 -7.1°
Sets 18:23:54 0° 16° (NNE) 3,395 7.2 -7.5°
